map of TUC home
TUC - Airport
Location
City:  Tucumán, Tucumán, Argentina
Near (Alt.):San Miguel de Tucumán
Name:Teniente General Benjamín Matienzo International Airport
ICAO:SANT
IATA:TUC

Details
Type:Airport (Aerodrome, Airfield)
Use:Public/Civil, International (customs port of entry)
Latitude:26°50'27"S (-26.840860)
Longitude:65°06'18"W (-65.104943)
Datum:WGS 1984
Elevation:1495 ft (456 m)
Variation:7.23°W (WMM2015v2 magnetic declination)
-0.20° annual change
Runways:1
Longest:9515 × 147 ft (2900 × 45 m), paved

Time
Time Zone:UTC-3
Local Time:

Weather
METAR:SANT 041400Z 00000KT 9999 FEW030 BKN100 22/17 Q1022
TAF:SANT 041100Z 0412/0512 VRB03KT 7000 BKN020 TX27/0418Z TN19/0510Z
BECMG 0414/0416 27003KT 9999 BKN025 BKN035

Related Locations
Nearby:
Farthest:JGS: 12437 mi / 20015 km
Ji'an [Jinggangshan], 36, CN

Find:

   beyond  
but within

Other Information
Maps:
NOTAMs:
Links:
Sources:

  
  • flag of Argentina
  • flag of Tucumán
  

Sectional Chart

Flight Planning
at skyvector.com

Satellite Image

Google Maps Satellite view

 

Copyright © 2004-2019 Karl L. Swartz. All rights reserved.
The Great Circle Mapper name and logo are trademarks of the Great Circle Mapper.
All other trademarks mentioned herein belong to their respective owners.
Please see credits for attibutions and further copyright information.

  Follow gcmap on Facebook Follow gcmap on Twitter GCmap on LinkedIn

hCard Microformat

Geo Microformat